Location: Chiroubles
(46.1812°N, 4.6660°E)
Time: 17:00:07
(UTC+00:00)

Cosmos 2219 Rocket - Pass Details

Date: 15 August 2020
Orbit: 826 x 848 km, 71.0° (Epoch: 22 September)

Event Time Altitude Azimuth Distance (km) Brightness Sun altitude
Rises 23:19:45 0° 325° (NW) 3,418 6.2 -29.9°
Reaches altitude 10° 23:22:28 10° 315° (NW) 2,479 5.2 -29.9°
Enters shadow 23:26:24 28° 273° (W) 1,532 3.5 -30.0°
